Year,Month,Day,Hour,Minute,Value (Times are PST for temperature in C)
2011,05,29,12,51,18.60
2011,05,29,12,52,18.50
2011,05,29,12,53,18.50
2011,05,29,12,54,18.40
2011,05,29,12,55,18.40
2011,05,29,12,56,18.50
2011,05,29,12,57,18.50
2011,05,29,12,58,18.60
2011,05,29,12,59,18.60
2011,05,29,13,00,18.70
2011,05,29,13,01,18.80
2011,05,29,13,02,18.80
2011,05,29,13,03,18.80
2011,05,29,13,04,18.80
2011,05,29,13,05,18.90
2011,05,29,13,06,18.90
2011,05,29,13,07,18.90
2011,05,29,13,08,19.00
2011,05,29,13,09,19.10
2011,05,29,13,10,19.10
2011,05,29,13,11,19.20
2011,05,29,13,12,19.20
2011,05,29,13,13,19.20
2011,05,29,13,14,19.20
2011,05,29,13,15,19.20
2011,05,29,13,16,19.10
2011,05,29,13,17,19.10
2011,05,29,13,18,18.90
2011,05,29,13,19,18.90
2011,05,29,13,20,18.90
2011,05,29,13,21,18.90
2011,05,29,13,22,18.90
2011,05,29,13,23,18.90
2011,05,29,13,24,18.90
2011,05,29,13,25,18.90
2011,05,29,13,26,18.90
2011,05,29,13,27,18.90
2011,05,29,13,28,18.90
2011,05,29,13,29,18.90
2011,05,29,13,30,18.90
2011,05,29,13,31,18.90
2011,05,29,13,32,18.90
2011,05,29,13,33,19.00
2011,05,29,13,34,19.10
2011,05,29,13,35,19.20
2011,05,29,13,36,19.30
2011,05,29,13,37,19.40
2011,05,29,13,38,19.50
2011,05,29,13,39,19.60
2011,05,29,13,40,19.60
2011,05,29,13,41,19.70
2011,05,29,13,42,19.70
2011,05,29,13,43,19.70
2011,05,29,13,44,19.70
2011,05,29,13,45,19.70
2011,05,29,13,46,19.80
2011,05,29,13,47,19.80
2011,05,29,13,48,19.90
2011,05,29,13,49,19.90
2011,05,29,13,50,20.10
2011,05,29,13,51,20.00
2011,05,29,13,52,20.00
2011,05,29,13,53,20.00
2011,05,29,13,54,20.00
2011,05,29,13,55,20.00
2011,05,29,13,56,19.90
2011,05,29,13,57,19.90
2011,05,29,13,58,19.90
2011,05,29,13,59,19.90
2011,05,29,14,00,19.90
2011,05,29,14,01,19.90
2011,05,29,14,02,19.90
2011,05,29,14,03,19.90
2011,05,29,14,04,19.90
2011,05,29,14,05,19.90
2011,05,29,14,06,19.90
2011,05,29,14,07,19.90
2011,05,29,14,08,19.90
2011,05,29,14,09,19.80
2011,05,29,14,10,19.80
2011,05,29,14,11,19.80
2011,05,29,14,12,19.80
2011,05,29,14,13,19.80
2011,05,29,14,14,19.80
2011,05,29,14,15,19.80
2011,05,29,14,16,19.80
2011,05,29,14,17,19.90
2011,05,29,14,18,19.90
2011,05,29,14,19,19.90
2011,05,29,14,20,19.90
2011,05,29,14,21,19.90
2011,05,29,14,22,19.90
2011,05,29,14,23,20.00
2011,05,29,14,24,20.00
2011,05,29,14,25,19.90
2011,05,29,14,26,19.90
2011,05,29,14,27,19.90
2011,05,29,14,28,19.90
2011,05,29,14,29,19.90
2011,05,29,14,30,19.90
2011,05,29,14,31,19.90
2011,05,29,14,32,19.80
2011,05,29,14,33,19.70
2011,05,29,14,34,19.60
2011,05,29,14,35,19.60
2011,05,29,14,36,19.50
2011,05,29,14,37,19.40
2011,05,29,14,38,19.30
2011,05,29,14,39,19.30
2011,05,29,14,40,19.30
2011,05,29,14,41,19.30
2011,05,29,14,42,19.30
2011,05,29,14,43,19.30
2011,05,29,14,44,19.20
2011,05,29,14,45,19.20
2011,05,29,14,46,19.10
2011,05,29,14,47,19.20
2011,05,29,14,48,19.20
2011,05,29,14,49,19.30
2011,05,29,14,50,19.30
2011,05,29,14,51,19.20
2011,05,29,14,52,19.20
2011,05,29,14,53,19.10
2011,05,29,14,54,19.10
2011,05,29,14,55,19.10
2011,05,29,14,56,19.00
2011,05,29,14,57,19.10
2011,05,29,14,58,19.10
2011,05,29,14,59,19.10
2011,05,29,15,00,19.00
2011,05,29,15,01,18.90
2011,05,29,15,02,18.90
2011,05,29,15,03,19.00
2011,05,29,15,04,18.90
2011,05,29,15,05,18.90
2011,05,29,15,06,18.90
2011,05,29,15,07,18.90
2011,05,29,15,08,18.90
2011,05,29,15,09,18.90
2011,05,29,15,10,19.00
2011,05,29,15,11,19.00
2011,05,29,15,12,19.10
2011,05,29,15,13,19.20
2011,05,29,15,14,19.20
2011,05,29,15,15,19.20
2011,05,29,15,16,19.30
2011,05,29,15,17,19.30
2011,05,29,15,18,19.30
2011,05,29,15,19,19.30
2011,05,29,15,20,19.30
2011,05,29,15,21,19.40
2011,05,29,15,22,19.40
2011,05,29,15,23,19.30
2011,05,29,15,24,19.30
2011,05,29,15,25,19.10
2011,05,29,15,26,18.90
2011,05,29,15,27,18.80
2011,05,29,15,28,18.70
2011,05,29,15,29,18.60
2011,05,29,15,30,18.50
2011,05,29,15,31,18.40
2011,05,29,15,32,18.30
2011,05,29,15,33,18.30
2011,05,29,15,34,18.30
2011,05,29,15,35,18.30
2011,05,29,15,36,18.30
2011,05,29,15,37,18.30
2011,05,29,15,38,18.40
2011,05,29,15,39,18.30
2011,05,29,15,40,18.30
2011,05,29,15,41,18.30
2011,05,29,15,50,18.00
2011,05,29,15,51,17.90
2011,05,29,15,52,17.90
2011,05,29,15,53,17.80
2011,05,29,16,00,17.70
2011,05,29,16,01,17.70
2011,05,29,16,10,17.40
2011,05,29,16,11,17.30
2011,05,29,16,12,17.30
2011,05,29,16,13,17.20
2011,05,29,16,14,17.20
2011,05,29,16,15,17.20
2011,05,29,16,16,17.30
2011,05,29,16,17,17.30
2011,05,29,16,18,17.30
2011,05,29,16,19,17.30
2011,05,29,16,20,17.20
2011,05,29,16,21,17.10
2011,05,29,16,22,17.00
2011,05,29,16,23,16.90
2011,05,29,16,24,16.90
2011,05,29,18,10,14.60
2011,05,29,18,11,14.60
2011,05,29,18,12,14.60
2011,05,29,18,13,14.60
2011,05,29,18,14,14.60
2011,05,29,18,15,14.60
2011,05,29,18,16,14.60
2011,05,29,18,17,14.60
2011,05,29,18,18,14.60
2011,05,29,18,19,14.70
2011,05,29,18,20,14.70
2011,05,29,18,21,14.70
2011,05,29,18,22,14.60
2011,05,29,18,23,14.60
2011,05,29,18,24,14.50
2011,05,29,18,25,14.50
2011,05,29,18,26,14.50
2011,05,29,18,27,14.50
2011,05,29,18,28,14.50
2011,05,29,18,29,14.50
2011,05,29,18,30,14.50
2011,05,29,18,31,14.50
2011,05,29,18,32,14.50
2011,05,29,18,33,14.50
2011,05,29,18,34,14.50
2011,05,29,18,35,14.40
2011,05,29,18,36,14.40
2011,05,29,18,37,14.30
2011,05,29,18,38,14.30
2011,05,29,18,39,14.20
2011,05,29,18,40,14.20
2011,05,29,18,41,14.10
2011,05,29,18,42,14.10
2011,05,29,18,43,13.90
2011,05,29,18,44,13.90
2011,05,29,18,45,13.90
2011,05,29,18,46,13.90
2011,05,29,18,47,13.90
2011,05,29,18,48,13.90
2011,05,29,18,49,13.80
2011,05,29,18,50,13.80
2011,05,29,18,51,13.70
2011,05,29,18,52,13.70
2011,05,29,18,53,13.60
2011,05,29,18,54,13.60
2011,05,29,18,55,13.60
2011,05,29,18,56,13.60
2011,05,29,18,57,13.60
2011,05,29,18,58,13.50
2011,05,29,18,59,13.50
2011,05,29,19,00,13.50
2011,05,29,19,01,13.50
2011,05,29,19,02,13.50
2011,05,29,19,03,13.40
2011,05,29,19,04,13.40
2011,05,29,19,05,13.40
2011,05,29,19,06,13.40
2011,05,29,19,07,13.40
2011,05,29,19,08,13.30
2011,05,29,19,09,13.30
2011,05,29,19,10,13.30
2011,05,29,19,11,13.30
2011,05,29,19,12,13.20
2011,05,29,19,13,13.20
2011,05,29,19,14,13.10
2011,05,29,19,15,13.10
2011,05,29,19,16,13.10
2011,05,29,19,17,13.10
2011,05,29,19,18,13.10
2011,05,29,19,19,13.10
2011,05,29,19,20,13.10
2011,05,29,19,21,13.10
2011,05,29,19,22,13.10
2011,05,29,19,23,13.20
2011,05,29,19,24,13.20
2011,05,29,19,25,13.20
2011,05,29,19,26,13.20
2011,05,29,19,27,13.20
2011,05,29,19,28,13.20
2011,05,29,19,29,13.20
2011,05,29,19,30,13.20
2011,05,29,19,31,13.10
2011,05,29,19,32,13.10
2011,05,29,19,33,13.00
2011,05,29,19,34,13.00
2011,05,29,19,35,12.90
2011,05,29,19,36,12.90
2011,05,29,19,37,12.90
2011,05,29,19,38,12.90
2011,05,29,19,39,12.90
2011,05,29,19,40,12.80
2011,05,29,19,41,12.80
2011,05,29,19,42,12.80
2011,05,29,19,43,12.80
2011,05,29,19,44,12.70
2011,05,29,19,45,12.70
2011,05,29,19,46,12.70
2011,05,29,19,47,12.70
2011,05,29,19,48,12.70
2011,05,29,19,49,12.70
2011,05,29,19,50,12.70
2011,05,29,19,51,12.60
2011,05,29,19,52,12.60
2011,05,29,19,53,12.60
2011,05,29,19,54,12.50
2011,05,29,19,55,12.50
2011,05,29,19,56,12.40
2011,05,29,19,57,12.40
2011,05,29,19,58,12.40
2011,05,29,19,59,12.40
2011,05,29,20,00,12.40
2011,05,29,20,01,12.40
2011,05,29,20,02,12.40
2011,05,29,20,03,12.40
2011,05,29,20,04,12.40
2011,05,29,20,05,12.30
2011,05,29,20,06,12.30
2011,05,29,20,07,12.30
2011,05,29,20,08,12.30
2011,05,29,20,09,12.30
2011,05,29,20,10,12.30
2011,05,29,20,11,12.30
2011,05,29,20,12,12.20
2011,05,29,20,13,12.20
2011,05,29,20,14,12.20
2011,05,29,20,15,12.20
2011,05,29,20,16,12.20
2011,05,29,20,17,12.20
2011,05,29,20,18,12.20
2011,05,29,20,19,12.20
2011,05,29,20,20,12.20
2011,05,29,20,21,12.20
2011,05,29,20,22,12.20
2011,05,29,20,23,12.20
2011,05,29,20,24,12.10
2011,05,29,20,25,12.10
2011,05,29,20,26,12.10
2011,05,29,20,27,12.10
2011,05,29,20,28,12.20
2011,05,29,20,29,12.20
2011,05,29,20,30,12.20
2011,05,29,20,31,12.20
2011,05,29,20,32,12.20
2011,05,29,20,33,12.20
2011,05,29,20,34,12.20
2011,05,29,20,35,12.20
2011,05,29,20,36,12.20
2011,05,29,20,37,12.20
2011,05,29,20,38,12.20
2011,05,29,20,39,12.20
2011,05,29,20,40,12.10
2011,05,29,20,41,12.20
2011,05,29,20,42,12.10
2011,05,29,20,43,12.10
2011,05,29,20,44,12.10
2011,05,29,20,45,12.10
2011,05,29,20,46,12.10
2011,05,29,20,47,12.10
2011,05,29,20,48,12.10
2011,05,29,20,49,12.10
2011,05,29,20,50,12.10
2011,05,29,20,51,12.10
2011,05,29,20,52,12.10
2011,05,29,20,53,12.10
2011,05,29,20,54,12.10
2011,05,29,20,55,12.10
2011,05,29,20,56,12.10
2011,05,29,20,57,12.10
2011,05,29,20,58,12.10
2011,05,29,20,59,12.10
2011,05,29,21,00,12.10
2011,05,29,21,01,12.10
2011,05,29,21,02,12.10
2011,05,29,21,03,12.10
2011,05,29,21,04,12.10
2011,05,29,21,05,12.10
2011,05,29,21,06,12.10
2011,05,29,21,07,12.10
2011,05,29,21,08,12.00
2011,05,29,21,09,12.10
2011,05,29,21,10,12.00
2011,05,29,21,11,12.00
2011,05,29,21,12,12.00
2011,05,29,21,13,12.00
2011,05,29,21,14,12.00
2011,05,29,21,15,12.00
2011,05,29,21,16,12.00
2011,05,29,21,17,12.00
2011,05,29,21,18,12.00
2011,05,29,21,19,11.90
2011,05,29,21,20,11.90
2011,05,29,21,21,11.90
2011,05,29,21,22,11.90
2011,05,29,21,23,11.90
2011,05,29,21,24,11.90
2011,05,29,21,25,11.90
2011,05,29,21,26,11.90
2011,05,29,21,27,11.90
2011,05,29,21,28,11.90
2011,05,29,21,29,11.90
2011,05,29,21,30,11.90
2011,05,29,21,31,11.80
2011,05,29,21,32,11.80
2011,05,29,21,33,11.90
2011,05,29,21,34,11.90
2011,05,29,21,35,11.90
2011,05,29,21,36,11.90
2011,05,29,21,37,11.90
2011,05,29,21,38,11.90
2011,05,29,21,39,11.90
2011,05,29,21,40,12.00
2011,05,29,21,41,11.90
2011,05,29,21,42,11.90
2011,05,29,21,43,11.90
2011,05,29,21,44,11.90
2011,05,29,21,45,11.90
2011,05,29,21,46,11.90
2011,05,29,21,47,11.90
2011,05,29,21,48,11.90
2011,05,29,21,49,11.90
2011,05,29,21,50,11.90
2011,05,29,21,51,11.90
2011,05,29,21,52,11.90
2011,05,29,21,53,11.90
2011,05,29,21,54,11.90
2011,05,29,21,55,11.90
2011,05,29,21,56,11.90
2011,05,29,21,57,11.90
2011,05,29,21,58,11.90
2011,05,29,21,59,11.90
2011,05,29,22,00,11.90
2011,05,29,22,01,11.90
2011,05,29,22,02,11.90
2011,05,29,22,03,11.90
2011,05,29,22,04,11.90
2011,05,29,22,05,11.90
2011,05,29,22,06,11.90
2011,05,29,22,07,11.90
2011,05,29,22,08,11.90
2011,05,29,22,09,11.90
2011,05,29,22,10,11.90
2011,05,29,22,11,11.90
2011,05,29,22,12,11.90
2011,05,29,22,13,11.90
2011,05,29,22,14,11.90
2011,05,29,22,15,11.90
2011,05,29,22,16,11.90
2011,05,29,22,17,11.90
2011,05,29,22,18,11.90
2011,05,29,22,19,11.90
2011,05,29,22,20,11.90
2011,05,29,22,21,11.90
2011,05,29,22,22,11.80
2011,05,29,22,23,11.80
2011,05,29,22,24,11.80
2011,05,29,22,25,11.80
2011,05,29,22,26,11.80
2011,05,29,22,27,11.80
2011,05,29,22,28,11.80
2011,05,29,22,29,11.80
2011,05,29,22,30,11.80
2011,05,29,22,31,11.80
2011,05,29,22,32,11.80
2011,05,29,22,33,11.70
2011,05,29,22,34,11.70
2011,05,29,22,35,11.70
2011,05,29,22,36,11.70
2011,05,29,22,37,11.70
2011,05,29,22,38,11.70
2011,05,29,22,39,11.70
2011,05,29,22,40,11.70
2011,05,29,22,41,11.70
2011,05,29,22,42,11.60
2011,05,29,22,43,11.60
2011,05,29,22,44,11.60
2011,05,29,22,45,11.60
2011,05,29,22,46,11.60
2011,05,29,22,47,11.60
2011,05,29,22,48,11.60
2011,05,29,22,49,11.60
2011,05,29,22,50,11.60
2011,05,29,22,51,11.60
2011,05,29,22,52,11.50
2011,05,29,22,53,11.50
2011,05,29,22,54,11.50
2011,05,29,22,55,11.50
2011,05,29,22,56,11.50
2011,05,29,22,57,11.50
2011,05,29,22,58,11.50
2011,05,29,22,59,11.40
2011,05,29,23,00,11.40
2011,05,29,23,01,11.40
2011,05,29,23,02,11.40
2011,05,29,23,03,11.40
2011,05,29,23,04,11.40
2011,05,29,23,05,11.40
2011,05,29,23,06,11.40
2011,05,29,23,07,11.40
2011,05,29,23,08,11.40
2011,05,29,23,09,11.40
2011,05,29,23,10,11.40
2011,05,29,23,11,11.40
2011,05,29,23,12,11.40
2011,05,29,23,13,11.40
2011,05,29,23,14,11.40
2011,05,29,23,15,11.40
2011,05,29,23,16,11.40
2011,05,29,23,17,11.40
2011,05,29,23,18,11.40
2011,05,29,23,19,11.40
2011,05,29,23,20,11.40
2011,05,29,23,21,11.40
2011,05,29,23,22,11.30
2011,05,29,23,23,11.30
2011,05,29,23,24,11.30
2011,05,29,23,25,11.30
2011,05,29,23,26,11.30
2011,05,29,23,27,11.30
2011,05,29,23,28,11.30
2011,05,29,23,29,11.30
2011,05,29,23,30,11.30
2011,05,29,23,31,11.30
2011,05,29,23,32,11.30
2011,05,29,23,33,11.30
2011,05,29,23,34,11.30
2011,05,29,23,35,11.30
2011,05,29,23,36,11.30
2011,05,29,23,37,11.30
2011,05,29,23,38,11.30
2011,05,29,23,39,11.30
2011,05,29,23,40,11.30
2011,05,29,23,41,11.30
2011,05,29,23,42,11.30
2011,05,29,23,43,11.20
2011,05,29,23,44,11.20
2011,05,29,23,45,11.20
2011,05,29,23,46,11.20
2011,05,29,23,47,11.20
2011,05,29,23,48,11.20
2011,05,29,23,49,11.20
2011,05,29,23,50,11.10
2011,05,29,23,51,11.10
2011,05,29,23,52,11.10
2011,05,29,23,53,11.10
2011,05,29,23,54,11.10
2011,05,29,23,55,11.10
2011,05,29,23,56,11.10
2011,05,29,23,57,11.10
2011,05,29,23,58,11.10
2011,05,29,23,59,11.10
